Woodward, OK

6:07 PM CST on February 20, 2018 (GMT -0600)
West Woodward

Weather History for KWWR - April, 2013

Change the Weather History Date:

Monday, April 29, 2013

  Actual Average (KGAG) Record (KGAG)
Temperature  
Mean Temperature 76 °F -  
Max Temperature 91 °F 73 °F 91 °F (2013)
Min Temperature 62 °F 47 °F 32 °F (2005)
Cooling Degree Days 12    
Growing Degree Days 26 (Base 50)    
Moisture  
Dew Point 42 °F    
Average Humidity 36    
Maximum Humidity 77    
Minimum Humidity 12    
Precipitation  
Precipitation 0.00 in - - ()
Sea Level Pressure  
Sea Level Pressure 29.74 in    
Wind  
Wind Speed 20 mph (South)    
Max Wind Speed 31 mph    
Max Gust Speed 40 mph    
Visibility 10 miles    
Events      
Averages and records for this station are not official NWS values.
T = Trace of Precipitation, MM = Missing Value Source: NWS Daily Summary

Daily Weather History Graph

Daily Weather History Graph

Search for Another Location

Airport or City:

Trip Planner

Search our weather history database for the weather conditions in past years. The results will help you decide how hot, cold, wet, or windy it might be!

Date:

Astronomy

Apr. 29, 2013 Rise Set
Actual Time 6:46 AM CDT 8:24 PM CDT
Civil Twilight 6:19 AM CDT 8:52 PM CDT
Nautical Twilight 5:46 AM CDT 9:25 PM CDT
Astronomical Twilight 5:11 AM CDT 10:00 PM CDT
Moon No Moon Rise 10:11 AM CDT (4/29)
Length of Visible Light 14h 33m
Length of Day
13h 37m
Waning Gibbous, 80% of the Moon is Illuminated
Apr 29
Waning Gibbous
May 2
Last Quarter
May 9
New
May 17
First Quarter
May 24
Full

Hourly Weather History & Observations

Time (CDT) Temp. Dew Point Humidity Pressure Visibility Wind Dir Wind Speed Gust Speed Precip Events Conditions
12:15 AM 68.0 °F 50.0 °F 52% 29.83 in 10.0 mi SSE 18.4 mph - N/A   Clear
12:35 AM 68.0 °F 51.8 °F 56% 29.83 in 10.0 mi SSE 19.6 mph 25.3 mph N/A   Clear
12:55 AM 68.0 °F 51.8 °F 56% 29.83 in 10.0 mi SSE 18.4 mph - N/A   Clear
1:15 AM 68.0 °F 53.6 °F 60% 29.83 in 10.0 mi SSE 19.6 mph 25.3 mph N/A   Clear
1:35 AM 66.2 °F 53.6 °F 64% 29.83 in 10.0 mi SSE 20.7 mph 26.5 mph N/A   Clear
1:55 AM 64.4 °F 55.4 °F 73% 29.83 in 10.0 mi SSE 19.6 mph 26.5 mph N/A   Clear
2:15 AM 64.4 °F 55.4 °F 73% 29.81 in 10.0 mi SSE 19.6 mph 25.3 mph N/A   Clear
2:35 AM 64.4 °F 57.2 °F 77% 29.81 in 10.0 mi SSE 20.7 mph 25.3 mph N/A   Clear
2:55 AM 64.4 °F 57.2 °F 77% 29.80 in 10.0 mi South 21.9 mph 27.6 mph N/A   Clear
3:15 AM 64.4 °F 55.4 °F 73% 29.80 in 10.0 mi South 17.3 mph 26.5 mph N/A   Clear
3:35 AM 64.4 °F 55.4 °F 73% 29.80 in 10.0 mi South 19.6 mph 23.0 mph N/A   Clear
3:55 AM 64.4 °F 55.4 °F 73% 29.80 in 10.0 mi South 19.6 mph 25.3 mph N/A   Clear
4:15 AM 64.4 °F 55.4 °F 73% 29.80 in 10.0 mi South 19.6 mph 27.6 mph N/A   Clear
4:35 AM 62.6 °F 53.6 °F 72% 29.80 in 10.0 mi South 18.4 mph 24.2 mph N/A   Clear
4:55 AM 62.6 °F 53.6 °F 72% 29.80 in 10.0 mi South 18.4 mph - N/A   Clear
5:15 AM 62.6 °F 53.6 °F 72% 29.79 in 10.0 mi South 17.3 mph - N/A   Clear
5:55 AM 62.6 °F 51.8 °F 68% 29.79 in 10.0 mi South 19.6 mph 27.6 mph N/A   Clear
6:15 AM 62.6 °F 50.0 °F 63% 29.79 in 10.0 mi South 17.3 mph 24.2 mph N/A   Clear
6:35 AM 62.6 °F 48.2 °F 59% 29.79 in 10.0 mi SSW 18.4 mph 24.2 mph N/A   Clear
6:55 AM 62.6 °F 48.2 °F 59% 29.80 in 10.0 mi SSW 17.3 mph - N/A   Clear
7:15 AM 62.6 °F 46.4 °F 55% 29.81 in 10.0 mi SSW 15.0 mph - N/A   Clear
7:35 AM 62.6 °F 46.4 °F 55% 29.81 in 10.0 mi SSW 15.0 mph - N/A   Clear
7:55 AM 64.4 °F 44.6 °F 49% 29.81 in 10.0 mi SSW 16.1 mph 20.7 mph N/A   Clear
8:15 AM 68.0 °F 42.8 °F 40% 29.81 in 10.0 mi SSW 15.0 mph - N/A   Clear
8:35 AM 68.0 °F 42.8 °F 40% 29.81 in 10.0 mi SSW 17.3 mph 23.0 mph N/A   Clear
8:55 AM 69.8 °F 42.8 °F 38% 29.81 in 10.0 mi SW 15.0 mph - N/A   Clear
9:15 AM 69.8 °F 42.8 °F 38% 29.81 in 10.0 mi SSW 16.1 mph - N/A   Clear
9:35 AM 71.6 °F 44.6 °F 38% 29.81 in 10.0 mi SW 16.1 mph - N/A   Clear
9:55 AM 73.4 °F 42.8 °F 33% 29.80 in 10.0 mi SSW 18.4 mph - N/A   Clear
10:15 AM 75.2 °F 44.6 °F 34% 29.80 in 10.0 mi SSW 18.4 mph 23.0 mph N/A   Clear
10:35 AM 77.0 °F 44.6 °F 32% 29.81 in 10.0 mi SSW 16.1 mph - N/A   Clear
10:55 AM 78.8 °F 44.6 °F 30% 29.80 in 10.0 mi SSW 13.8 mph - N/A   Clear
11:15 AM 80.6 °F 44.6 °F 28% 29.80 in 10.0 mi SW 15.0 mph - N/A   Clear
11:35 AM 82.4 °F 44.6 °F 26% 29.80 in 10.0 mi SSW 15.0 mph 18.4 mph N/A   Clear
11:55 AM 84.2 °F 44.6 °F 25% 29.79 in 10.0 mi SSW 16.1 mph - N/A   Clear
12:15 PM 86.0 °F 42.8 °F 22% 29.78 in 10.0 mi SSW 13.8 mph 20.7 mph N/A   Clear
12:35 PM 87.8 °F 39.2 °F 18% 29.77 in 10.0 mi SSW 17.3 mph 21.9 mph N/A   Clear
12:55 PM 87.8 °F 41.0 °F 19% 29.76 in 10.0 mi South 18.4 mph 23.0 mph N/A   Clear
1:15 PM 87.8 °F 39.2 °F 18% 29.75 in 10.0 mi South 20.7 mph 26.5 mph N/A   Clear
1:35 PM 89.6 °F 37.4 °F 16% 29.74 in 10.0 mi South 19.6 mph 28.8 mph N/A   Clear
1:55 PM 89.6 °F 35.6 °F 15% 29.73 in 10.0 mi SSW 21.9 mph 28.8 mph N/A   Clear
2:15 PM 89.6 °F 33.8 °F 14% 29.72 in 10.0 mi SSW 23.0 mph 33.4 mph N/A   Clear
2:35 PM 89.6 °F 33.8 °F 14% 29.71 in 10.0 mi SSW 21.9 mph 32.2 mph N/A   Clear
2:55 PM 91.4 °F 33.8 °F 13% 29.71 in 10.0 mi South 27.6 mph 33.4 mph N/A   Clear
3:15 PM 91.4 °F 33.8 °F 13% 29.70 in 10.0 mi SSW 26.5 mph 31.1 mph N/A   Clear
3:35 PM 91.4 °F 32.0 °F 12% 29.69 in 10.0 mi SSW 20.7 mph 34.5 mph N/A   Clear
3:55 PM 91.4 °F 32.0 °F 12% 29.69 in 10.0 mi SSW 23.0 mph 31.1 mph N/A   Clear
4:15 PM 91.4 °F 32.0 °F 12% 29.68 in 10.0 mi SSW 17.3 mph 31.1 mph N/A   Clear
4:35 PM 91.4 °F 33.8 °F 13% 29.67 in 10.0 mi SSW 20.7 mph 29.9 mph N/A   Clear
4:55 PM 91.4 °F 33.8 °F 13% 29.65 in 10.0 mi South 21.9 mph 34.5 mph N/A   Clear
5:15 PM 91.4 °F 33.8 °F 13% 29.65 in 10.0 mi South 24.2 mph 31.1 mph N/A   Clear
5:35 PM 89.6 °F 33.8 °F 14% 29.64 in 10.0 mi South 23.0 mph 32.2 mph N/A   Clear
5:55 PM 89.6 °F 33.8 °F 14% 29.63 in 10.0 mi South 20.7 mph 31.1 mph N/A   Clear
6:15 PM 89.6 °F 33.8 °F 14% 29.63 in 10.0 mi South 20.7 mph 29.9 mph N/A   Clear
6:35 PM 87.8 °F 33.8 °F 15% 29.62 in 10.0 mi South 24.2 mph 32.2 mph N/A   Clear
6:55 PM 87.8 °F 32.0 °F 14% 29.62 in 10.0 mi South 27.6 mph 34.5 mph N/A   Clear
7:15 PM 86.0 °F 33.8 °F 15% 29.62 in 10.0 mi South 26.5 mph 29.9 mph N/A   Clear
7:35 PM 86.0 °F 33.8 °F 15% 29.62 in 10.0 mi South 21.9 mph 33.4 mph N/A   Clear
7:55 PM 82.4 °F 32.0 °F 16% 29.62 in 10.0 mi South 20.7 mph 31.1 mph N/A   Clear
8:15 PM 82.4 °F 32.0 °F 16% 29.62 in 10.0 mi SSE 18.4 mph 31.1 mph N/A   Clear
8:35 PM 80.6 °F 32.0 °F 17% 29.63 in 10.0 mi South 24.2 mph 33.4 mph N/A   Clear
8:55 PM 78.8 °F 33.8 °F 20% 29.63 in 10.0 mi SSE 21.9 mph 29.9 mph N/A   Clear
9:15 PM 78.8 °F 33.8 °F 20% 29.64 in 10.0 mi SSE 23.0 mph 28.8 mph N/A   Clear
9:35 PM 77.0 °F 35.6 °F 22% 29.65 in 10.0 mi SSE 25.3 mph 31.1 mph N/A   Clear
9:55 PM 77.0 °F 37.4 °F 24% 29.66 in 10.0 mi South 27.6 mph 36.8 mph N/A   Clear
10:15 PM 77.0 °F 37.4 °F 24% 29.66 in 10.0 mi South 27.6 mph 34.5 mph N/A   Clear
10:35 PM 75.2 °F 37.4 °F 25% 29.65 in 10.0 mi South 27.6 mph 35.7 mph N/A   Clear
10:55 PM 75.2 °F 37.4 °F 25% 29.65 in 10.0 mi South 28.8 mph 39.1 mph N/A   Clear
11:15 PM 73.4 °F 39.2 °F 29% 29.66 in 10.0 mi South 28.8 mph 35.7 mph N/A   Clear
11:35 PM 73.4 °F 41.0 °F 31% 29.66 in 10.0 mi South 28.8 mph 40.3 mph N/A   Clear
11:55 PM 71.6 °F 44.6 °F 38% 29.66 in 10.0 mi South 31.1 mph 40.3 mph N/A   Clear